• MPC Preparation (Info)

  • MPEC 2014-E87 : 2014 EZ48

    The following Minor Planet Electronic Circular may be linked-to from your own Web pages, but must not otherwise be redistributed electronically.

    A form allowing access to any MPEC is at the bottom of this page.


    Read MPEC 2014-E86 Read MPEC 2014-E88


    M.P.E.C. 2014-E87                                Issued 2014 Mar. 15, 12:51 UT
    
         The Minor Planet Electronic Circulars contain information on unusual
             minor planets and routine data on comets.  They are published
       on behalf of Commission 20 of the International Astronomical Union by the
              Minor Planet Center, Smithsonian Astrophysical Observatory,
                              Cambridge, MA 02138, U.S.A.
    
                 Prepared using the Tamkin Foundation Computer Network
    
                                  MPC@CFA.HARVARD.EDU
                URL https://www.minorplanetcenter.net/    ISSN 1523-6714
    
                                       2014 EZ48
    
    Observations:
         K14E48Z* C2014 03 12.36814 12 02 03.31 -05 48 39.1          18.9 VqEE087703
         K14E48Z  C2014 03 12.37741 12 02 03.17 -05 48 14.0          18.6 VqEE087703
         K14E48Z  C2014 03 12.39126 12 02 02.82 -05 47 37.9          18.7 VqEE087703
         K14E48Z  C2014 03 12.40052 12 02 02.70 -05 47 13.5          18.4 VqEE087703
         K14E48Z  C2014 03 12.44323 12 02 01.71 -05 45 21.3          18.1 VqEE087703
         K14E48Z  C2014 03 12.45378 12 02 01.50 -05 44 53.5          17.8 VqEE087703
         K14E48Z  C2014 03 12.46433 12 02 01.31 -05 44 26.2          18.2 VqEE087703
         K14E48Z  C2014 03 12.47490 12 02 01.11 -05 43 57.6          18.7 VqEE087703
         K14E48Z KC2014 03 12.87454 12 01 56.12 -05 26 17.5                qEE087595
         K14E48Z KC2014 03 12.88383 12 01 55.96 -05 25 52.6          19.0 VqEE087595
         K14E48Z KC2014 03 12.89312 12 01 55.77 -05 25 26.9                qEE087595
         K14E48Z KC2014 03 12.89951 12 01 55.72 -05 25 08.1          18.8 VuEE087958
         K14E48Z KC2014 03 12.90532 12 01 55.63 -05 24 53.0          18.9 VuEE087958
         K14E48Z KC2014 03 12.91696 12 01 55.43 -05 24 21.6          19.4 VuEE087958
         K14E48Z KC2014 03 12.92537 12 01 55.15 -05 23 59.9          19.3 VqEE087K32
         K14E48Z KC2014 03 12.93777 12 01 54.99 -05 23 25.7          19.7 VqEE087K32
         K14E48Z KC2014 03 12.95002 12 01 54.57 -05 22 52.4          19.0 VqEE087K32
         K14E48Z KC2014 03 13.09349 12 01 51.53 -05 16 25.5                tEE087204
         K14E48Z KC2014 03 13.10173 12 01 51.36 -05 16 03.2          18.4 RtEE087204
         K14E48Z KC2014 03 13.11020 12 01 51.18 -05 15 40.1                tEE087204
         K14E48Z tC2014 03 13.12972 12 01 51.59 -05 14 29.8          19.2 RrEE087Y00
         K14E48Z tC2014 03 13.13200 12 01 51.52 -05 14 22.4          19.5 RrEE087Y00
         K14E48Z tC2014 03 13.13433 12 01 51.46 -05 14 16.0          19.5 RrEE087Y00
         K14E48Z KC2014 03 13.32361 12 01 48.21 -05 05 54.6          18.8 RqEE087448
         K14E48Z KC2014 03 13.33097 12 01 48.02 -05 05 34.2          18.8 RqEE087448
         K14E48Z KC2014 03 13.33829 12 01 47.82 -05 05 14.5          18.4 RqEE087448
         K14E48Z  C2014 03 13.35415 12 01 47.56 -05 04 30.7          19.2 VoEE087691
         K14E48Z  C2014 03 13.37184 12 01 47.15 -05 03 42.2          19.2 VoEE087691
         K14E48Z KC2014 03 13.37937 12 01 46.99 -05 03 21.3          18.4 RoEE087291
         K14E48Z KC2014 03 13.38088 12 01 46.95 -05 03 17.2          18.4 RoEE087291
         K14E48Z KC2014 03 13.38239 12 01 46.92 -05 03 13.0          18.5 RoEE087291
         K14E48Z  C2014 03 13.38953 12 01 46.74 -05 02 53.5          18.9 VoEE087691
         K14E48Z KC2014 03 13.52117 12 01 45.36 -04 56 30.3          18.6 VqEE087E23
         K14E48Z KC2014 03 13.52811 12 01 45.17 -04 56 11.8          18.5 VqEE087E23
         K14E48Z KC2014 03 13.53506 12 01 45.10 -04 55 52.6          18.4 VqEE087E23
         K14E48Z KC2014 03 13.98497 12 01 36.93 -04 35 17.0          18.1 RqEE087203
         K14E48Z  C2014 03 13.98685 12 01 36.75 -04 35 11.8          18.1 RvEE087461
         K14E48Z  C2014 03 13.98965 12 01 36.68 -04 35 03.8          18.3 RvEE087461
         K14E48Z  C2014 03 13.99243 12 01 36.63 -04 34 55.9          18.2 RvEE087461
         K14E48Z KC2014 03 14.00069 12 01 36.55 -04 34 32.2          17.9 RqEE087203
         K14E48Z KC2014 03 14.11751 12 01 34.95 -04 28 38.6          18.0 VuEE087X38
         K14E48Z KC2014 03 14.13204 12 01 34.61 -04 27 57.0          18.4 VuEE087X38
         K14E48Z KC2014 03 14.14734 12 01 34.28 -04 27 13.7          18.0 VuEE087X38
         K14E48Z  C2014 03 14.19578 12 01 33.94 -04 25 14.9          18.9 RoEE087926
         K14E48Z  C2014 03 14.20706 12 01 33.68 -04 24 42.8          18.9 RoEE087926
         K14E48Z  C2014 03 14.21825 12 01 33.43 -04 24 10.8          18.5 RoEE087926
         K14E48Z  C2014 03 14.92648 12 01 19.95 -03 50 02.3          18.1 RvEE087461
         K14E48Z  C2014 03 14.93207 12 01 19.82 -03 49 45.7          18.1 RvEE087461
         K14E48Z  C2014 03 14.93766 12 01 19.67 -03 49 29.2          17.9 RvEE087461
    
    Observer details:
    203 GiaGa Observatory.  Observers S. Foglia, G. Galli.  Measurer G. Galli.
        0.28-m f/6.8 Schmidt-Cassegrain + CCD.
    204 Schiaparelli Observatory.  Observer L. Buzzi.  0.60-m f/4.64 reflector
        + CCD.
    291 LPL/Spacewatch II.  Observer T. H. Bressi.  1.8-m f/2.7 reflector + CCD.
    448 Desert Moon Observatory.  Observer B. L. Stevens.  0.3-m
        Schmidt-Cassegrain + CCD.
    461 University of Szeged, Piszkesteto Stn. (Konkoly).  Observer K. Sarneczky.
        0.60-m Schmidt + CCD.
    595 Farra d'Isonzo.  Observer E. Pettarin.  0.40-m f/4.5 reflector + CCD.
    691 Steward Observatory, Kitt Peak.  Observer T. H. Bressi.  0.9-m f/3
        reflector + CCD.
    703 Catalina Sky Survey.  Observer J. A. Johnson.  Measurers E. J. Christensen,
        A. R. Gibbs, A. D. Grauer, R. E. Hill, J. A. Johnson, R. A. Kowalski,
        S. M. Larson, F. C. Shelly.  0.68-m Schmidt + CCD.
    926 Tenagra II Observatory.  Observers M. Schwartz, P. R. Holvorcem.  0.81-m
        f/7 Ritchey-Chretien + CCD.
    958 Observatoire de Dax.  Observers P. Dupouy, J. B. de Vanssay.  Measurer
        P. Dupouy.  0.43-m f/2.7 reflector + CCD.
    E23 Arcadia.  Observer A. Hidas.  0.35-m Schmidt-Cassegrain + CCD.
    K32 Maritime Alps Observatory, Cuneo.  Observer G. Locatelli.  0.25-m f/6.3
        Schmidt-Cassegrain + CCD.
    X38 Observatorio Pueyrredon, La Lonja.  Observers E. Primucci, A. Chapman,
        N. D. Diaz.  Measurer E. Primucci.  0.25-m reflector + CCD.
    Y00 SONEAR Observatory, Oliveira.  Observers C. Jacques, E. Pimentel,
        J. Barros.  Measurer C. Jacques.  0.45-m f/2.9 reflector + CCD.
    
    Orbital elements:
    2014 EZ48                                                Earth MOID = 0.2667 AU
    Epoch 2013 Nov. 4.0 TT = JDT 2456600.5                  MPC
    M 299.11108              (2000.0)            P               Q
    n   0.27651900     Peri.   81.89640     -0.15911529     +0.98721948
    a   2.3333832      Node   178.82951     -0.98623629     -0.15935630
    e   0.5791944      Incl.   25.97085     +0.04494783     -0.00180765
    P   3.56           H   18.9           G   0.15           U   8
    Residuals in seconds of arc
    140312 703  0.1-  0.0     140313 204  0.3-  0.2-    140313 E23  0.5+  0.1-
    140312 703  0.8+  0.8+    140313 204  0.3-  0.3-    140313 203  0.2-  0.2-
    140312 703  0.0   0.4+    140313 204  0.4-  0.2-    140313 461  0.1+  0.2+
    140312 703  1.1+  0.4+    140313 Y00  0.5+  1.2-    140313 461  0.0   0.3+
    140312 703  0.4-  0.0     140313 Y00  0.3+  0.0     140313 461  0.2+  0.3+
    140312 703  0.3-  0.1-    140313 Y00  0.2+  0.0     140314 203  0.5-  0.2+
    140312 703  0.0   0.6-    140313 448  0.3+  0.1+    140314 X38  0.0   0.2-
    140312 703  0.2+  0.0     140313 448  0.0   0.3+    140314 X38  0.0   0.1+
    140312 595  0.4+  1.0-    140313 448  0.5-  0.1-    140314 X38  0.5+  0.0
    140312 595  0.7+  1.0-    140313 691  0.2-  0.0     140314 926  0.4+  0.0
    140312 595  0.7+  0.3-    140313 691  0.2-  0.1-    140314 926  0.3+  0.0
    140312 958  0.8-  0.7+    140313 291  0.0   0.1+    140314 926  0.3+  0.2+
    140312 958  0.4-  0.2+    140313 291  0.1-  0.1+    140314 461  0.2+  0.2-
    140312 958  0.0   0.3+    140313 291  0.0   0.1+    140314 461  0.2+  0.1-
    140312 K32  0.1+  0.3-    140313 691  0.3-  0.1-    140314 461  0.0   0.0
    140312 K32 (1.6+  0.5+)   140313 E23  0.3-  0.6+
    140312 K32  0.9-  0.8+    140313 E23  0.8-  0.1-
    
    Ephemeris:
    2014 EZ48                a,e,i = 2.33, 0.58, 26                  q = 0.9819
    Date    TT    R. A. (2000) Decl.     Delta      r     Elong.  Phase     V
    2014 02 13    11 59 36.1 -16 15 56   0.8563  1.7064   135.4    24.0    20.8
    ...
    2014 02 28    12 03 19.9 -12 33 33   0.6455  1.5870   151.2    17.5    19.9
    ...
    2014 03 08    12 02 57.0 -08 41 17   0.5491  1.5230   161.4    12.0    19.2
    ...
    2014 03 14    12 01 36.6 -04 34 23   0.4859  1.4751   170.1     6.7    18.7
    2014 03 15    12 01 18.4 -03 46 13   0.4762  1.4671   171.6     5.7    18.6
    2014 03 16    12 00 58.8 -02 55 56   0.4668  1.4592   173.2     4.6    18.5
    ...
    2014 03 22    11 58 36.7 +02 52 33   0.4159  1.4116   176.4     2.5    18.0
    ...
    2014 03 30    11 54 39.5 +12 42 19   0.3649  1.3491   161.1    13.9    18.2
    ...
    2014 04 14    11 48 09.5 +35 06 23   0.3255  1.2367   129.8    38.6    18.5
    
    A. U. Tomatic                (C) Copyright 2014 MPC           M.P.E.C. 2014-E87
    

    Read MPEC 2014-E86 Read MPEC 2014-E88


    MPEC number:

    Enter an MPEC number in one of the following forms:

    • 1997-B01 (the full form)
    • J97B01 (the packed version of the full form)
    • B01 (the abbreviated form)